Flag for U.S.A. Weather past 2 weeks in Pittsburgh, Pennsylvania, U.S.A.

Now
53 °F

Clear.


Feels Like: 50 °F
Forecast: 33 / 55 °F
Wind: 9 mph from South

Location: Allegheny County Airport

Current Time: Dec 27, 2014 at 6:40:13 PM

Latest Report: Dec 27, 2014 at 5:53 PM


Visibility: 10 mi

Pressure: 30.11 "Hg

Humidity: 31%

Dew point: 23 °F

Location of PittsburghLocation

Historic Weather in Pittsburgh — Graph

°F

Pittsburgh temperature yesterday

Maximum temperature yesterday: 49 °F (at 2:53 PM)
Minimum temperature yesterday: 32 °F (at 6:53 AM)
Average temperature yesterday: 40 °F

Past Weeks' High & Low Weather Summary

 TemperatureHumidityPressure
High61 °F (Dec 24, 3:53 PM)93% (Dec 15, 9:53 AM)30.37 "Hg (Dec 15, 9:53 AM)
Low25 °F (Dec 12, 9:53 PM)32% (Dec 27, 3:53 PM)29.35 "Hg (Dec 24, 7:53 PM)
Average37 °F73%30.09 "Hg
* Reported Dec 12 4:53 PM — Dec 27 4:53 PM, Pittsburgh, Weather by CustomWeather, © 2014

Note: Actual official high and low records may vary slightly from our data, if they occured in-between our weather recording intervals... More about our weather records

Advertising

Pittsburgh weather history for previous 24 hours

 ConditionsComfort  
Time TempWeatherWind HumidityBarometerVisibility
4:53 PM
Dec 27
55 °FScattered clouds.9 mph33%30.11 "Hg10 mi
3:53 PM57 °FPassing clouds.13 mph32%30.09 "Hg10 mi
2:53 PM56 °FSunny.14 mph34%30.10 "Hg10 mi
1:53 PM56 °FScattered clouds.12 mph36%30.13 "Hg10 mi
12:53 PM53 °FSunny.12 mph39%30.17 "Hg10 mi
11:53 AM51 °FSunny.9 mph42%30.20 "Hg10 mi
10:53 AM47 °FPartly sunny.13 mph46%30.25 "Hg10 mi
9:53 AM42 °FMostly cloudy.10 mph53%30.27 "Hg10 mi
8:53 AM39 °FOvercast.9 mph60%30.26 "Hg10 mi
7:53 AM37 °FSunny.12 mph65%30.25 "Hg8 mi
6:53 AM39 °FOvercast.8 mph60%30.25 "Hg10 mi
5:53 AM39 °FOvercast.8 mph60%30.24 "Hg10 mi
4:53 AM37 °FClear.9 mph65%30.24 "Hg10 mi
3:53 AM38 °FClear.9 mph65%30.22 "Hg9 mi
2:53 AM39 °FClear.7 mph62%30.23 "Hg10 mi
1:53 AM39 °FClear.7 mph62%30.22 "Hg9 mi
12:53 AM39 °FClear.8 mph62%30.22 "Hg10 mi
11:53 PM
Dec 26
40 °FClear.9 mph63%30.22 "Hg10 mi
10:53 PM41 °FClear.9 mph60%30.23 "Hg10 mi
9:53 PM42 °FClear.7 mph57%30.24 "Hg10 mi
8:53 PM43 °FClear.9 mph53%30.24 "Hg10 mi
7:53 PM43 °FClear.6 mph53%30.26 "Hg10 mi
6:53 PM43 °FClear.8 mph53%30.25 "Hg10 mi
Weather by CustomWeather, © 2014

See weather overviewHow to use our weather pages